TimeGMT,TemperatureF,Dew PointF,Humidity,Sea Level PressureIn,VisibilityMPH,Wind Direction,Wind SpeedMPH,Gust SpeedMPH,PrecipitationIn,Events,Conditions,WindDirDegrees,DateUTC
12:00 AM,50,49,94,29.82,10,SSE,6.7,,,,Partly Cloudy,160,2011-11-21 00:00:00
12:00 AM,50.0,48.2,94,29.80,6.2,SSE,6.9,-,N/A,,Mostly Cloudy,160,2011-11-21 00:00:00
12:30 AM,50.0,48.2,94,29.80,6.2,SSE,8.1,-,N/A,,Mostly Cloudy,160,2011-11-21 00:30:00
1:00 AM,50.0,48.2,94,29.80,6.2,SSE,6.9,-,N/A,,Mostly Cloudy,160,2011-11-21 01:00:00
1:30 AM,50.0,48.2,94,29.80,6.2,SSE,6.9,-,N/A,Rain,Light Rain,160,2011-11-21 01:30:00
2:00 AM,50.0,48.2,94,29.80,6.2,South,5.8,-,N/A,Rain,Light Rain,170,2011-11-21 02:00:00
2:30 AM,50.0,48.2,94,29.80,6.2,SSE,5.8,-,N/A,,Mostly Cloudy,150,2011-11-21 02:30:00
3:00 AM,50.0,48.2,94,29.80,6.2,SSE,4.6,-,N/A,,Mostly Cloudy,150,2011-11-21 03:00:00
3:30 AM,50.0,48.2,94,29.80,6.2,South,4.6,-,N/A,,Mostly Cloudy,170,2011-11-21 03:30:00
4:00 AM,50.0,48.2,94,29.80,3.7,SSW,5.8,-,N/A,Rain,Light Rain,210,2011-11-21 04:00:00
4:30 AM,50.0,50.0,100,29.80,5.0,SW,5.8,-,N/A,,Light Drizzle,220,2011-11-21 04:30:00
5:00 AM,48.2,48.2,100,29.80,4.3,NW,9.2,-,N/A,,Light Drizzle,310,2011-11-21 05:00:00
5:30 AM,48.2,48.2,100,29.80,6.2,NW,4.6,-,N/A,,Mostly Cloudy,320,2011-11-21 05:30:00
6:00 AM,48,47,96,29.83,7,WNW,4.5,,,Rain,Light Drizzle,300,2011-11-21 06:00:00
6:00 AM,48.2,46.4,93,29.83,6.2,WNW,3.5,-,N/A,,Mostly Cloudy,300,2011-11-21 06:00:00
6:30 AM,48.2,46.4,93,29.83,6.2,West,3.5,-,N/A,,Mostly Cloudy,280,2011-11-21 06:30:00
7:00 AM,48.2,46.4,93,29.83,6.2,WNW,4.6,-,N/A,,Mostly Cloudy,300,2011-11-21 07:00:00
7:30 AM,48.2,46.4,93,29.83,6.2,WNW,4.6,-,N/A,,Mostly Cloudy,290,2011-11-21 07:30:00
8:00 AM,48.2,46.4,93,29.83,6.2,WNW,6.9,-,N/A,,Mostly Cloudy,300,2011-11-21 08:00:00
8:30 AM,48.2,46.4,93,29.86,3.7,WNW,4.6,-,N/A,,Light Drizzle,290,2011-11-21 08:30:00
9:00 AM,48.2,46.4,93,29.86,3.1,NW,6.9,-,N/A,Rain,Light Rain,310,2011-11-21 09:00:00
9:30 AM,48.2,46.4,93,29.89,3.1,NNW,10.4,-,N/A,Rain,Light Rain,340,2011-11-21 09:30:00
10:00 AM,48.2,46.4,93,29.89,6.2,North,8.1,-,N/A,,Light Drizzle,360,2011-11-21 10:00:00
10:30 AM,48.2,46.4,93,29.89,6.2,North,9.2,-,N/A,,Mostly Cloudy,350,2011-11-21 10:30:00
11:00 AM,48.2,46.4,93,29.89,6.2,North,8.1,-,N/A,,Mostly Cloudy,350,2011-11-21 11:00:00
11:30 AM,48.2,46.4,93,29.89,6.2,North,9.2,-,N/A,,Light Drizzle,350,2011-11-21 11:30:00
12:00 PM,48,46,91,29.91,5,NNW,6.7,,,Rain,Light Drizzle,340,2011-11-21 12:00:00
12:00 PM,48.2,46.4,93,29.89,5.0,NNW,6.9,-,N/A,,Light Drizzle,340,2011-11-21 12:00:00
12:30 PM,48.2,46.4,93,29.89,6.2,NNW,6.9,-,N/A,Rain,Light Rain,330,2011-11-21 12:30:00
1:00 PM,48.2,44.6,87,29.89,6.2,NW,9.2,-,N/A,Rain,Light Rain,320,2011-11-21 13:00:00
1:30 PM,46.4,44.6,93,29.89,6.2,North,8.1,-,N/A,Rain,Light Rain,350,2011-11-21 13:30:00
2:00 PM,46.4,44.6,93,29.89,5.6,North,8.1,-,N/A,Rain,Light Rain,360,2011-11-21 14:00:00
2:30 PM,46.4,44.6,93,29.92,6.2,NNW,5.8,-,N/A,Rain,Light Rain,340,2011-11-21 14:30:00
3:00 PM,46.4,44.6,93,29.92,6.2,North,3.5,-,N/A,Rain,Light Rain,360,2011-11-21 15:00:00
3:30 PM,46.4,44.6,93,29.92,6.2,North,3.5,-,N/A,Rain,Light Rain,350,2011-11-21 15:30:00
4:00 PM,46.4,44.6,93,29.92,6.2,North,3.5,-,N/A,Rain,Light Rain,10,2011-11-21 16:00:00
4:30 PM,46.4,44.6,93,29.92,6.2,NE,4.6,-,N/A,,Mostly Cloudy,40,2011-11-21 16:30:00
5:00 PM,44.6,42.8,93,29.95,6.2,NE,1.2,-,N/A,,Mostly Cloudy,40,2011-11-21 17:00:00
5:30 PM,44.6,42.8,93,29.95,6.2,NNW,2.3,-,N/A,,Mostly Cloudy,330,2011-11-21 17:30:00
6:00 PM,44.6,42.8,93,29.95,6.2,WNW,2.3,-,N/A,,Mostly Cloudy,290,2011-11-21 18:00:00
6:30 PM,42.8,42.8,100,29.95,-9999.0,WNW,2.3,-,N/A,,Clear,300,2011-11-21 18:30:00
7:00 PM,42.8,41.0,93,29.98,6.2,NNW,1.2,-,N/A,,Mostly Cloudy,330,2011-11-21 19:00:00
7:30 PM,42.8,41.0,93,29.98,6.2,West,1.2,-,N/A,,Mostly Cloudy,260,2011-11-21 19:30:00
8:00 PM,42.8,42.8,100,29.98,6.2,WNW,1.2,-,N/A,,Mostly Cloudy,290,2011-11-21 20:00:00
8:30 PM,42.8,41.0,93,29.98,6.2,NNE,2.3,-,N/A,,Mostly Cloudy,20,2011-11-21 20:30:00
9:00 PM,42.8,41.0,93,30.01,6.2,NNE,1.2,-,N/A,,Mostly Cloudy,20,2011-11-21 21:00:00
9:30 PM,42.8,41.0,93,30.01,6.2,NW,1.2,-,N/A,,Mostly Cloudy,320,2011-11-21 21:30:00
10:00 PM,41.0,41.0,100,30.01,6.2,NW,1.2,-,N/A,,Scattered Clouds,320,2011-11-21 22:00:00
10:30 PM,41.0,39.2,93,30.01,6.2,Variable,1.2,-,N/A,,Scattered Clouds,0,2011-11-21 22:30:00
11:00 PM,39.2,39.2,100,30.01,6.2,NNW,4.6,-,N/A,Fog,Shallow Fog,340,2011-11-21 23:00:00
11:30 PM,39.2,39.2,100,30.04,-9999.0,NW,3.5,-,N/A,,Clear,310,2011-11-21 23:30:00